Puerto Plata, Dominican Republic

2:16 PM AST on February 12, 2016 (GMT -0400)
Gregorio Luperon International

Weather History for MDPP - July, 2013

Change the Weather History Date:

Monday, July 29, 2013

  Actual Average Record
Temperature  
Mean Temperature 81 °F -  
Max Temperature 88 °F 88 °F 93 °F (2002)
Min Temperature 74 °F 75 °F 37 °F (2000)
Cooling Degree Days 16    
Growing Degree Days 31 (Base 50)    
Moisture  
Dew Point 78 °F    
Average Humidity 80    
Maximum Humidity 94    
Minimum Humidity 66    
Precipitation  
Precipitation 0.00 in - - ()
Sea Level Pressure  
Sea Level Pressure 30.01 in    
Wind  
Wind Speed 6 mph ()    
Max Wind Speed 18 mph    
Max Gust Speed -    
Visibility 7.4 miles    
Events      
Averages and records for this station are not official NWS values.
T = Trace of Precipitation, MM = Missing Value Source: Averaged Metar Reports

Daily Weather History Graph

Daily Weather History Graph

Search for Another Location

Airport or City:

Trip Planner

Search our weather history database for the weather conditions in past years. The results will help you decide how hot, cold, wet, or windy it might be!

Date:

Astronomy

Jul. 29, 2013 Rise Set
Actual Time 6:17 AM AST 7:20 PM AST
Civil Twilight 5:53 AM AST 7:43 PM AST
Nautical Twilight 5:25 AM AST 8:11 PM AST
Astronomical Twilight 4:57 AM AST 8:39 PM AST
Moon No Moon Rise 12:47 PM AST (7/29)
Length of Visible Light 13h 50m
Length of Day
13h 03m
Waning Gibbous, 51% of the Moon is Illuminated
Jul 29
Waning Gibbous
Jul 29
Last Quarter
Aug 6
New
Aug 14
First Quarter
Aug 20
Full

Hourly Weather History & Observations

Time (AST) Temp. Heat Index Dew Point Humidity Pressure Visibility Wind Dir Wind Speed Gust Speed Precip Events Conditions
2:00 AM 79 °F - 75 °F 84% 30.03 in 10 mi Calm Calm - -   Scattered Clouds
2:00 AM 78.8 °F - 75.2 °F 89% 3.13 in 6.2 mi Calm Calm - N/A   Partly Cloudy
5:00 AM 78.8 °F - 77.0 °F 94% 30.01 in 6.2 mi Calm Calm - N/A   Partly Cloudy
8:00 AM 81 °F - 77 °F 83% 30.03 in 10 mi Calm Calm - -   Partly Cloudy
8:00 AM 80.6 °F 87.1 °F 77.0 °F 89% 30.01 in 6.2 mi Calm Calm - N/A   Partly Cloudy
9:00 AM 84.2 °F 94.1 °F 77.0 °F 79% 30.04 in 6.2 mi East 5.8 mph - N/A   Mostly Cloudy
10:00 AM 86.0 °F 96.9 °F 77.0 °F 74% 30.04 in 6.2 mi ENE 5.8 mph - N/A   Mostly Cloudy
11:00 AM 87 °F - 79 °F 70% 30.03 in 10 mi NNE 11.2 mph - -   Mostly Cloudy
11:00 AM 86.0 °F 99.3 °F 78.8 °F 79% 30.01 in 6.2 mi NNE 11.5 mph - N/A   Mostly Cloudy
12:00 PM 86.0 °F 99.3 °F 78.8 °F 79% 30.01 in 6.2 mi ENE 11.5 mph - N/A   Scattered Clouds
1:00 PM 91.4 °F 107.2 °F 78.8 °F 66% 30.01 in 6.2 mi ENE 15.0 mph - N/A   Scattered Clouds
2:00 PM 88 °F - 79 °F 68% 30.02 in 10 mi East 17.9 mph - -   Partly Cloudy
2:00 PM 87.8 °F 102.5 °F 78.8 °F 75% 30.01 in 6.2 mi East 17.3 mph - N/A   Scattered Clouds
3:00 PM 87.8 °F 102.5 °F 78.8 °F 75% 29.98 in 6.2 mi ENE 13.8 mph - N/A   Partly Cloudy
4:00 PM 87.8 °F 102.5 °F 78.8 °F 75% 29.98 in 6.2 mi East 11.5 mph - N/A   Partly Cloudy
5:00 PM 87 °F - 78 °F 69% 29.97 in 10 mi East 13.4 mph - -   Partly Cloudy
5:00 PM 86.0 °F 99.3 °F 78.8 °F 79% 29.95 in 6.2 mi East 13.8 mph - N/A   Scattered Clouds
6:00 PM 86.0 °F 99.3 °F 78.8 °F 79% 29.98 in 6.2 mi ENE 11.5 mph - N/A   Partly Cloudy
7:00 PM 84.2 °F 96.1 °F 78.8 °F 84% 29.98 in 6.2 mi East 11.5 mph - N/A   Mostly Cloudy
8:00 PM 82 °F - 79 °F 87% 30.01 in 10 mi East 6.7 mph - -   Partly Cloudy
8:00 PM 82.4 °F 92.4 °F 78.8 °F 89% 30.01 in 6.2 mi East 6.9 mph - N/A   Scattered Clouds
11:00 PM 80 °F - 77 °F 87% 30.05 in 10 mi East 6.7 mph - -   Scattered Clouds
11:00 PM 80.6 °F 87.1 °F 77.0 °F 89% 30.04 in 6.2 mi East 6.9 mph - N/A   Mostly Cloudy